Regional Weather Roundup
Issued by NWS

Home | Current Version | Previous Version | Graphics & Text | Print | Product List | Glossary On
Versions: 1 2 3 4 5 6 7 8 9 10 11 12 13 14 15 16 17 18 19 20 21 22 23 24 25 26 27 28 29 30 31 32 33 34 35 36 37 38 39 40 41 42 43 44 45 46 47 48 49 50
000
ASUS43 KDTX 250601
RWRMI
MICHIGAN HOURLY REGIONAL WEATHER ROUNDUP
NATIONAL WEATHER SERVICE DETROIT/PONTIAC MI
200 AM EDT SUN JUN 25 2017

NOTE: "FAIR" INDICATES FEW OR NO CLOUDS BELOW 12,000 FEET WITH NO
SIGNIFICANT WEATHER AND/OR OBSTRUCTION TO VISIBILITY.

MIZ047>049-052>055-059>063-066>070-074>076-081>083-250700-
SOUTHEAST LOWER MICHIGAN

CITY           SKY/WX    TMP DP  RH WIND       PRES   REMARKS
ADRIAN         CLEAR     59  48  67 W6        30.04S
6HR MIN TEMP:  55; 6HR MAX TEMP:  71;

ALMA           CLEAR     56  49  77 SW3       29.98F
ANN ARBOR      CLEAR     49  48  97 SW5       30.01F
BAD AXE        CLEAR     56  54  95 SW5       29.96S
6HR MIN TEMP:  55; 6HR MAX TEMP:  63;

CARO           PTCLDY    52  52  99 CALM      29.97S
DETROIT CITY   CLOUDY    64  48  56 W3        30.00F
6HR MIN TEMP:  63; 6HR MAX TEMP:  73;

DETROIT        MOCLDY    62  49  62 W9        30.01F
6HR MIN TEMP:  62; 6HR MAX TEMP:  73;

FLINT          CLEAR     58  48  69 SW6       29.99F
6HR MIN TEMP:  57; 6HR MAX TEMP:  70;

GROSSE ILE     CLEAR     60  50  69 W5        30.00S
6HR MIN TEMP:  60; 6HR MAX TEMP:  73;

HILLSDALE      CLEAR     55  46  71 SW3       30.03F
HOWELL         CLEAR     57  46  65 SW5       30.01S
6HR MIN TEMP:  57; 6HR MAX TEMP:  69;


CITY           SKY/WX    TMP DP  RH WIND       PRES   REMARKS
JACKSON        CLEAR     57  48  72 SW6       30.02F
6HR MIN TEMP:  56; 6HR MAX TEMP:  68;

LAMBERTVILLE   CLEAR     56  50  82 CALM      30.02S
6HR MIN TEMP:  55; 6HR MAX TEMP:  73;

LANSING        CLEAR     58  47  66 SW7       30.00F
6HR MIN TEMP:  58; 6HR MAX TEMP:  70;

LAPEER         CLOUDY    60  47  60 SW6       29.99S
6HR MIN TEMP:  59; 6HR MAX TEMP:  67;

MASON          CLEAR     57  49  75 CALM      30.01F
MONROE         CLEAR     57  51  78 W5        30.01S
6HR MIN TEMP:  57; 6HR MAX TEMP:  72;

MT. CLEMENS    CLOUDY    63  49  59 W6        29.98S
6HR MIN TEMP:  62; 6HR MAX TEMP:  73;

PONTIAC        CLOUDY    62  49  62 W6        29.99F
6HR MIN TEMP:  61; 6HR MAX TEMP:  71;

PORT HOPE        N/A     60  54  80 W6        29.93S
6HR MIN TEMP:  59; 6HR MAX TEMP:  67;

PORT HURON     MOCLDY    54  50  87 CALM      29.99S
TRI CITIES     CLOUDY    59  52  77 SW8       29.98S
6HR MIN TEMP:  58; 6HR MAX TEMP:  67;

MIDLAND        MOCLDY    57  50  77 SW5       29.96F
6HR MIN TEMP:  55; 6HR MAX TEMP:  63;

TROY           CLOUDY    64  46  51 SW5       30.02S
SAGINAW HB     PTCLDY    55  48  76 SW7       29.97S
$$
MIZ043>046-050>051-056>058-064>065-071>073-077>080-250700-
SOUTHWEST LOWER MICHIGAN

CITY           SKY/WX    TMP DP  RH WIND       PRES   REMARKS
BATTLE CREEK   MOCLDY    56  51  84 SW7       30.03S
6HR MIN TEMP:  55; 6HR MAX TEMP:  69;

BENTON HARBOR  CLOUDY    63  49  60 W12       30.03S
6HR MIN TEMP:  62; 6HR MAX TEMP:  69;

BIG RAPIDS     MOCLDY    55  48  79 SW3       29.95F
6HR MIN TEMP:  54; 6HR MAX TEMP:  65;

COLDWATER      MOCLDY    57  50  78 SW5       30.03F
6HR MIN TEMP:  56; 6HR MAX TEMP:  69;

FREMONT        MOCLDY    56  49  75 W7        29.97S
HOLLAND        MOCLDY    61  50  67 W12       30.01R
6HR MIN TEMP:  56; 6HR MAX TEMP:  66;

GRAND RAPIDS   CLOUDY    58  52  80 SW7       29.99S
6HR MIN TEMP:  58; 6HR MAX TEMP:  69;

IONIA          MOCLDY    58  49  71 SW6       29.98F
6HR MIN TEMP:  58; 6HR MAX TEMP:  69;

KALAMAZOO      PTCLDY    58  50  75 SW7       30.02F
6HR MIN TEMP:  56; 6HR MAX TEMP:  69;

LUDINGTON      LGT RAIN  58  52  81 W8        29.95R
6HR MIN TEMP:  57; 6HR MAX TEMP:  65;

MARSHALL       PTCLDY    55  50  86 S3        30.02F
6HR MIN TEMP:  53; 6HR MAX TEMP:  68;

MOUNT PLEASANT PTCLDY    56  48  72 SW5       29.96F
6HR MIN TEMP:  56; 6HR MAX TEMP:  67;

MUSKEGON       CLEAR     61  47  59 W16       29.99S
6HR MIN TEMP:  61; 6HR MAX TEMP:  66;

SOUTH HAVEN    CLOUDY    64  51  61 W6        30.01F
$$
MIZ016>042-250700-
NORTHERN LOWER MICHIGAN

CITY           SKY/WX    TMP DP  RH WIND       PRES   REMARKS
ALPENA         CLOUDY    56  55  97 SW5       29.92F
6HR MIN TEMP:  56; 6HR MAX TEMP:  64; 6HR PCP:  0.50;

BEAVER ISLAND  FOG       52  52 100 CALM      29.92F VSB 3/4
BELLAIRE       CLOUDY    56  54  94 CALM      29.93S
6HR MIN TEMP:  54; 6HR MAX TEMP:  63;

CADILLAC       MOCLDY    48  47  96 CALM      29.94S
CHARLEVOIX     PTCLDY    56  56  98 W3        29.95S
6HR MIN TEMP:  56; 6HR MAX TEMP:  61;

FRANKFORT      CLOUDY    53  51  91 SE3       29.93F
GAYLORD        CLOUDY    54  51  90 SW5       29.93S
6HR MIN TEMP:  54; 6HR MAX TEMP:  60; 6HR PCP:  0.02;

GRAYLING       CLOUDY    52  51  97 CALM      29.94F
HARBOR SPRINGS CLOUDY    57  57  98 W3        29.91F
HOUGHTON LAKE  PTCLDY    52  50  93 CALM      29.95F
6HR MIN TEMP:  52; 6HR MAX TEMP:  60; 6HR PCP: TRACE;

MANISTEE       CLOUDY    55  51  86 N3        29.94S
OSCODA         PTCLDY    55  54  95 SW6       29.93S
6HR MIN TEMP:  55; 6HR MAX TEMP:  59;

PELLSTON       CLOUDY    56  53  90 SW5       29.92S
6HR MIN TEMP:  56; 6HR MAX TEMP:  63; 6HR PCP:  0.01;

ROGERS CITY    CLOUDY    57  55  94 SW5       29.92F
TRAVERSE CITY  MOCLDY    56  53  90 CALM      29.92S
6HR MIN TEMP:  56; 6HR MAX TEMP:  66; 6HR PCP: TRACE;

$$
MIZ007>008-015-250700-
EASTERN UPPER MICHIGAN

CITY           SKY/WX    TMP DP  RH WIND       PRES   REMARKS
KINROSS        CLOUDY    52  49  89 W6        29.90S
6HR MIN TEMP:  52; 6HR MAX TEMP:  59;

MACKINAC ISLAN CLOUDY    55  50  85 NW5       29.90S
6HR MIN TEMP:  55; 6HR MAX TEMP:  61;

NEWBERRY       RAIN      52  51  97 CALM      29.92S
6HR MIN TEMP:  52; 6HR MAX TEMP:  59; 6HR PCP:  0.11;

S. S. MARIE    CLOUDY    54  47  77 W5        29.89S
6HR MIN TEMP:  53; 6HR MAX TEMP:  67;

MUNISING         N/A     53  52  96 CALM      29.92S
6HR MIN TEMP:  52; 6HR MAX TEMP:  55; 6HR PCP:  0.39;

$$
MIZ004>006-011>014-085-250700-
CENTRAL UPPER MICHIGAN

CITY           SKY/WX    TMP DP  RH WIND       PRES   REMARKS
MANISTIQUE     DRIZZLE   53  50  89 N3        29.92S
6HR MIN TEMP:  53; 6HR MAX TEMP:  56; 6HR PCP:  0.25;

ESCANABA       CLOUDY    53  53 100 CALM      29.93S
6HR MIN TEMP:  53; 6HR MAX TEMP:  56; 6HR PCP:  0.02;

MENOMINEE      CLOUDY    54  52  93 CALM      29.95S
6HR MIN TEMP:  52; 6HR MAX TEMP:  61; 6HR PCP:  0.12;

SAWYER-GWINN   DRIZZLE   50  49  97 W3        29.93F
6HR MIN TEMP:  50; 6HR MAX TEMP:  54; 6HR PCP:  0.21;

$$
MIZ001>003-009>011-084-250700-
WESTERN UPPER MICHIGAN

CITY           SKY/WX    TMP DP  RH WIND       PRES   REMARKS
IRON MOUNTAIN  LGT RAIN  53  50  89 W5        29.92F
6HR MIN TEMP:  53; 6HR MAX TEMP:  54; 6HR PCP:  0.08;

HOUGHTON       FOG       50  48  93 NW7       29.93S VSB 1/4
6HR MIN TEMP:  50; 6HR MAX TEMP:  53;

COPPER HARBOR    N/A     49  48  97 CALM      29.92F
6HR MIN TEMP:  47; 6HR MAX TEMP:  58;

IRONWOOD       CLOUDY    53  51  93 W6        29.97S
6HR MIN TEMP:  52; 6HR MAX TEMP:  54;

$$

ABBREVIATIONS USED IN REMARKS
   TC - TEMPERATURE IN CELSIUS
  WCI - WIND CHILL INDEX
   HX - HEAT INDEX
  VSB - VISIBILITY





USA.gov is the U.S. government's official web portal to all federal, state and local government web resources and services.